Time,TemperatureF,DewpointF,PressureIn,WindDirection,WindDirectionDegrees,WindSpeedMPH,WindSpeedGustMPH,Humidity,HourlyPrecipIn,Conditions,Clouds,dailyrainin,SoftwareType,DateUTC
2014-01-07 00:03:00,19.4,16.0,30.57,WSW,247,0.0,0.0,84,0.00,,,0.00,Rainwise IP-100,2014-01-07 06:03:00,
2014-01-07 00:09:00,19.3,16.0,30.57,WSW,247,0.0,0.0,84,0.00,,,0.00,Rainwise IP-100,2014-01-07 06:09:00,
2014-01-07 00:14:00,19.4,16.0,30.57,WSW,247,0.0,0.0,84,0.00,,,0.00,Rainwise IP-100,2014-01-07 06:14:00,
2014-01-07 00:19:00,19.3,16.0,30.56,WSW,247,0.0,0.0,84,0.00,,,0.00,Rainwise IP-100,2014-01-07 06:19:00,
2014-01-07 00:24:00,19.3,16.0,30.56,WSW,247,0.0,0.0,84,0.00,,,0.00,Rainwise IP-100,2014-01-07 06:24:00,
2014-01-07 00:29:00,19.3,16.0,30.56,WSW,247,0.0,0.0,84,0.00,,,0.00,Rainwise IP-100,2014-01-07 06:29:00,
2014-01-07 00:34:00,19.3,16.0,30.56,WSW,247,0.0,0.0,84,0.00,,,0.00,Rainwise IP-100,2014-01-07 06:34:00,
2014-01-07 00:39:00,19.4,16.0,30.56,WSW,247,0.0,0.0,85,0.00,,,0.00,Rainwise IP-100,2014-01-07 06:39:00,
2014-01-07 00:44:00,19.5,16.0,30.55,WSW,247,0.0,0.0,85,0.00,,,0.00,Rainwise IP-100,2014-01-07 06:44:00,
2014-01-07 00:50:00,19.5,16.0,30.55,WSW,247,0.0,0.0,85,0.00,,,0.00,Rainwise IP-100,2014-01-07 06:50:00,
2014-01-07 00:55:00,19.5,16.0,30.55,WSW,247,0.0,0.0,85,0.00,,,0.00,Rainwise IP-100,2014-01-07 06:55:00,
2014-01-07 01:00:00,19.3,16.0,30.55,WSW,247,0.0,0.0,85,0.00,,,0.00,Rainwise IP-100,2014-01-07 07:00:00,
2014-01-07 01:05:00,19.4,16.0,30.55,WSW,247,0.0,0.0,85,0.00,,,0.00,Rainwise IP-100,2014-01-07 07:05:00,
2014-01-07 01:10:00,19.5,16.0,30.55,WSW,247,0.0,0.0,85,0.00,,,0.00,Rainwise IP-100,2014-01-07 07:10:00,
2014-01-07 01:15:00,19.5,16.0,30.54,WSW,247,0.0,0.0,86,0.00,,,0.00,Rainwise IP-100,2014-01-07 07:15:00,
2014-01-07 01:17:00,19.5,16.0,30.55,WSW,247,0.0,0.0,86,0.00,,,0.00,Rainwise IP-100,2014-01-07 07:17:00,
2014-01-07 01:22:00,19.5,16.0,30.55,WSW,247,0.0,0.0,86,0.00,,,0.00,Rainwise IP-100,2014-01-07 07:22:00,
2014-01-07 01:28:00,19.7,16.0,30.54,WSW,247,0.0,0.0,86,0.00,,,0.00,Rainwise IP-100,2014-01-07 07:28:00,
2014-01-07 01:33:00,19.8,16.0,30.54,WSW,247,0.0,0.0,86,0.00,,,0.00,Rainwise IP-100,2014-01-07 07:33:00,
2014-01-07 01:37:00,19.6,16.0,30.54,WSW,247,0.0,0.0,86,0.00,,,0.00,Rainwise IP-100,2014-01-07 07:37:00,
2014-01-07 01:42:00,19.7,16.0,30.53,WSW,247,0.0,0.0,86,0.00,,,0.00,Rainwise IP-100,2014-01-07 07:42:00,
2014-01-07 01:47:00,20.0,16.0,30.54,WSW,247,0.0,1.0,86,0.00,,,0.00,Rainwise IP-100,2014-01-07 07:47:00,
2014-01-07 01:52:00,20.1,16.0,30.53,WSW,247,0.0,1.0,86,0.00,,,0.00,Rainwise IP-100,2014-01-07 07:52:00,
2014-01-07 01:57:00,20.0,16.0,30.53,WSW,247,0.0,1.0,85,0.00,,,0.00,Rainwise IP-100,2014-01-07 07:57:00,
2014-01-07 02:02:00,20.1,16.0,30.53,WSW,247,0.0,0.0,85,0.00,,,0.00,Rainwise IP-100,2014-01-07 08:02:00,
2014-01-07 02:07:00,20.1,16.0,30.53,WSW,247,0.0,0.0,86,0.00,,,0.00,Rainwise IP-100,2014-01-07 08:07:00,
2014-01-07 02:12:00,20.0,16.0,30.53,WSW,247,0.0,0.0,86,0.00,,,0.00,Rainwise IP-100,2014-01-07 08:12:00,
2014-01-07 02:18:00,20.0,16.0,30.53,WSW,247,0.0,0.0,86,0.00,,,0.00,Rainwise IP-100,2014-01-07 08:18:00,
2014-01-07 02:23:00,20.1,16.0,30.53,WSW,247,0.0,1.0,86,0.00,,,0.00,Rainwise IP-100,2014-01-07 08:23:00,
2014-01-07 02:28:00,20.4,16.0,30.54,South,180,1.2,2.0,84,0.00,,,0.00,Rainwise IP-100,2014-01-07 08:28:00,
2014-01-07 02:33:00,20.5,16.0,30.53,South,180,2.1,3.0,83,0.00,,,0.00,Rainwise IP-100,2014-01-07 08:33:00,
2014-01-07 02:38:00,20.7,16.0,30.53,South,180,2.1,2.1,83,0.00,,,0.00,Rainwise IP-100,2014-01-07 08:38:00,
2014-01-07 02:43:00,21.1,16.0,30.53,South,180,1.4,3.0,81,0.00,,,0.00,Rainwise IP-100,2014-01-07 08:43:00,
2014-01-07 02:48:00,21.4,16.0,30.53,South,180,3.5,3.5,79,0.00,,,0.00,Rainwise IP-100,2014-01-07 08:48:00,
2014-01-07 02:54:00,21.8,16.0,30.53,SSE,157,1.6,4.0,77,0.00,,,0.00,Rainwise IP-100,2014-01-07 08:54:00,
2014-01-07 02:59:00,22.3,16.0,30.53,SSW,202,3.3,4.0,75,0.00,,,0.00,Rainwise IP-100,2014-01-07 08:59:00,
2014-01-07 03:04:00,22.7,16.0,30.54,South,180,1.9,3.0,73,0.00,,,0.00,Rainwise IP-100,2014-01-07 09:04:00,
2014-01-07 03:09:00,22.8,16.0,30.53,South,180,1.9,3.0,72,0.00,,,0.00,Rainwise IP-100,2014-01-07 09:09:00,
2014-01-07 03:14:00,22.8,16.0,30.53,SSE,157,0.0,3.0,71,0.00,,,0.00,Rainwise IP-100,2014-01-07 09:14:00,
2014-01-07 03:19:00,22.9,16.0,30.54,South,180,1.4,2.0,71,0.00,,,0.00,Rainwise IP-100,2014-01-07 09:19:00,
2014-01-07 03:24:00,22.9,14.0,30.54,South,180,2.3,3.0,70,0.00,,,0.00,Rainwise IP-100,2014-01-07 09:24:00,
2014-01-07 03:29:00,22.9,14.0,30.54,South,180,2.1,3.0,69,0.00,,,0.00,Rainwise IP-100,2014-01-07 09:29:00,
2014-01-07 03:35:00,22.9,14.0,30.54,South,180,0.0,2.0,69,0.00,,,0.00,Rainwise IP-100,2014-01-07 09:35:00,
2014-01-07 03:40:00,22.7,14.0,30.54,SSW,202,2.1,2.1,69,0.00,,,0.00,Rainwise IP-100,2014-01-07 09:40:00,
2014-01-07 03:45:00,22.6,14.0,30.54,South,180,1.9,3.0,69,0.00,,,0.00,Rainwise IP-100,2014-01-07 09:45:00,
2014-01-07 03:50:00,22.6,14.0,30.54,South,180,0.0,3.0,69,0.00,,,0.00,Rainwise IP-100,2014-01-07 09:50:00,
2014-01-07 03:55:00,22.5,14.0,30.54,South,180,0.0,1.0,68,0.00,,,0.00,Rainwise IP-100,2014-01-07 09:55:00,
2014-01-07 04:00:00,22.3,14.0,30.54,SSW,202,0.0,1.0,68,0.00,,,0.00,Rainwise IP-100,2014-01-07 10:00:00,
2014-01-07 04:05:00,22.1,14.0,30.54,SSW,202,0.0,1.0,69,0.00,,,0.00,Rainwise IP-100,2014-01-07 10:05:00,
2014-01-07 04:11:00,22.0,14.0,30.54,SSW,202,0.0,1.0,70,0.00,,,0.00,Rainwise IP-100,2014-01-07 10:11:00,
2014-01-07 04:16:00,21.9,14.0,30.54,SSW,202,0.0,1.0,70,0.00,,,0.00,Rainwise IP-100,2014-01-07 10:16:00,
2014-01-07 04:21:00,21.7,14.0,30.54,SSW,202,0.0,0.0,70,0.00,,,0.00,Rainwise IP-100,2014-01-07 10:21:00,
2014-01-07 04:26:00,21.5,14.0,30.54,SSW,202,0.0,1.0,70,0.00,,,0.00,Rainwise IP-100,2014-01-07 10:26:00,
2014-01-07 04:31:00,21.3,14.0,30.53,SSW,202,0.0,0.0,70,0.00,,,0.00,Rainwise IP-100,2014-01-07 10:31:00,
2014-01-07 04:36:00,20.9,14.0,30.54,SSW,202,0.0,0.0,70,0.00,,,0.00,Rainwise IP-100,2014-01-07 10:36:00,
2014-01-07 04:41:00,20.5,14.0,30.54,SSW,202,0.0,0.0,71,0.00,,,0.00,Rainwise IP-100,2014-01-07 10:41:00,
2014-01-07 04:46:00,20.3,14.0,30.53,SSW,202,1.4,1.4,72,0.00,,,0.00,Rainwise IP-100,2014-01-07 10:46:00,
2014-01-07 04:52:00,20.0,14.0,30.53,SSW,202,0.0,1.0,73,0.00,,,0.00,Rainwise IP-100,2014-01-07 10:52:00,
2014-01-07 04:57:00,20.0,14.0,30.53,SSW,202,0.0,1.0,73,0.00,,,0.00,Rainwise IP-100,2014-01-07 10:57:00,
2014-01-07 05:02:00,20.2,14.0,30.54,SSW,202,0.0,0.0,72,0.00,,,0.00,Rainwise IP-100,2014-01-07 11:02:00,
2014-01-07 05:07:00,19.9,14.0,30.54,SSW,202,0.0,1.0,72,0.00,,,0.00,Rainwise IP-100,2014-01-07 11:07:00,
2014-01-07 05:12:00,19.7,14.0,30.54,SSW,202,0.0,1.0,73,0.00,,,0.00,Rainwise IP-100,2014-01-07 11:12:00,
2014-01-07 05:17:00,19.3,14.0,30.54,SSW,202,0.0,1.0,73,0.00,,,0.00,Rainwise IP-100,2014-01-07 11:17:00,
2014-01-07 05:22:00,19.0,14.0,30.54,SSW,202,0.0,1.0,74,0.00,,,0.00,Rainwise IP-100,2014-01-07 11:22:00,
2014-01-07 05:28:00,18.8,14.0,30.54,SSW,202,0.0,1.0,74,0.00,,,0.00,Rainwise IP-100,2014-01-07 11:28:00,
2014-01-07 05:33:00,18.6,14.0,30.54,SSW,202,0.0,0.0,75,0.00,,,0.00,Rainwise IP-100,2014-01-07 11:33:00,
2014-01-07 05:38:00,18.5,14.0,30.54,SSW,202,0.0,1.0,75,0.00,,,0.00,Rainwise IP-100,2014-01-07 11:38:00,
2014-01-07 05:43:00,18.8,14.0,30.54,SSW,202,0.0,1.0,75,0.00,,,0.00,Rainwise IP-100,2014-01-07 11:43:00,
2014-01-07 05:48:00,19.1,14.0,30.54,SSW,202,0.0,1.0,74,0.00,,,0.00,Rainwise IP-100,2014-01-07 11:48:00,
2014-01-07 05:53:00,19.0,14.0,30.54,SSW,202,0.0,0.0,74,0.00,,,0.00,Rainwise IP-100,2014-01-07 11:53:00,
2014-01-07 05:58:00,18.8,14.0,30.54,SSW,202,0.0,0.0,74,0.00,,,0.00,Rainwise IP-100,2014-01-07 11:58:00,
2014-01-07 06:03:00,18.8,14.0,30.54,SSW,202,0.0,0.0,74,0.00,,,0.00,Rainwise IP-100,2014-01-07 12:03:00,
2014-01-07 06:09:00,18.8,14.0,30.54,SSW,202,0.0,0.0,74,0.00,,,0.00,Rainwise IP-100,2014-01-07 12:09:00,
2014-01-07 06:14:00,18.6,14.0,30.54,SSW,202,0.0,0.0,74,0.00,,,0.00,Rainwise IP-100,2014-01-07 12:14:00,
2014-01-07 06:19:00,18.6,14.0,30.54,SSW,202,0.0,0.0,74,0.00,,,0.00,Rainwise IP-100,2014-01-07 12:19:00,
2014-01-07 06:24:00,18.3,11.0,30.54,SSW,202,0.0,0.0,74,0.00,,,0.00,Rainwise IP-100,2014-01-07 12:24:00,
2014-01-07 06:29:00,18.0,11.0,30.53,SSW,202,0.0,0.0,74,0.00,,,0.00,Rainwise IP-100,2014-01-07 12:29:00,
2014-01-07 06:34:00,18.0,11.0,30.53,SSW,202,0.0,0.0,74,0.00,,,0.00,Rainwise IP-100,2014-01-07 12:34:00,
2014-01-07 06:39:00,17.8,14.0,30.53,SSW,202,0.0,0.0,75,0.00,,,0.00,Rainwise IP-100,2014-01-07 12:39:00,
2014-01-07 06:45:00,17.3,14.0,30.53,North,360,0.0,2.0,76,0.00,,,0.00,Rainwise IP-100,2014-01-07 12:45:00,
2014-01-07 06:50:00,16.5,14.0,30.53,North,360,0.0,1.0,77,0.00,,,0.00,Rainwise IP-100,2014-01-07 12:50:00,
2014-01-07 06:55:00,15.8,11.0,30.54,North,360,0.0,0.0,79,0.00,,,0.00,Rainwise IP-100,2014-01-07 12:55:00,
2014-01-07 07:00:00,15.7,11.0,30.54,North,360,0.0,0.0,80,0.00,,,0.00,Rainwise IP-100,2014-01-07 13:00:00,
2014-01-07 07:05:00,15.6,11.0,30.54,North,360,0.0,0.0,81,0.00,,,0.00,Rainwise IP-100,2014-01-07 13:05:00,
2014-01-07 07:10:00,15.4,11.0,30.54,North,360,1.2,1.2,82,0.00,,,0.00,Rainwise IP-100,2014-01-07 13:10:00,
2014-01-07 07:15:00,15.0,11.0,30.54,North,360,1.6,2.0,82,0.00,,,0.00,Rainwise IP-100,2014-01-07 13:15:00,
2014-01-07 07:20:00,14.7,11.0,30.54,North,360,0.0,2.0,82,0.00,,,0.00,Rainwise IP-100,2014-01-07 13:20:00,
2014-01-07 07:26:00,14.7,14.0,30.54,North,360,0.0,0.0,84,0.00,,,0.00,Rainwise IP-100,2014-01-07 13:26:00,
2014-01-07 07:31:00,14.7,14.0,30.53,North,360,0.0,0.0,84,0.00,,,0.00,Rainwise IP-100,2014-01-07 13:31:00,
2014-01-07 07:36:00,14.9,14.0,30.53,North,360,0.0,0.0,85,0.00,,,0.00,Rainwise IP-100,2014-01-07 13:36:00,
2014-01-07 07:41:00,15.0,14.0,30.53,North,360,0.0,0.0,85,0.00,,,0.00,Rainwise IP-100,2014-01-07 13:41:00,
2014-01-07 07:46:00,14.7,14.0,30.53,North,360,0.0,0.0,85,0.00,,,0.00,Rainwise IP-100,2014-01-07 13:46:00,
2014-01-07 07:51:00,14.5,14.0,30.53,North,360,0.0,0.0,85,0.00,,,0.00,Rainwise IP-100,2014-01-07 13:51:00,
2014-01-07 07:56:00,14.4,11.0,30.53,North,360,0.0,0.0,85,0.00,,,0.00,Rainwise IP-100,2014-01-07 13:56:00,
2014-01-07 08:02:00,14.3,11.0,30.53,North,360,0.0,0.0,86,0.00,,,0.00,Rainwise IP-100,2014-01-07 14:02:00,
2014-01-07 08:07:00,14.5,14.0,30.52,North,360,0.0,0.0,87,0.00,,,0.00,Rainwise IP-100,2014-01-07 14:07:00,
2014-01-07 08:12:00,15.0,14.0,30.52,North,360,0.0,0.0,88,0.00,,,0.00,Rainwise IP-100,2014-01-07 14:12:00,
2014-01-07 08:17:00,15.8,14.0,30.53,North,360,0.0,0.0,88,0.00,,,0.00,Rainwise IP-100,2014-01-07 14:17:00,
2014-01-07 08:22:00,16.7,16.0,30.53,North,360,0.0,0.0,88,0.00,,,0.00,Rainwise IP-100,2014-01-07 14:22:00,
2014-01-07 08:27:00,17.9,16.0,30.53,ENE,67,0.0,1.0,87,0.00,,,0.00,Rainwise IP-100,2014-01-07 14:27:00,
2014-01-07 08:32:00,19.3,16.0,30.54,ENE,67,0.0,1.0,84,0.00,,,0.00,Rainwise IP-100,2014-01-07 14:32:00,
2014-01-07 08:37:00,20.6,16.0,30.54,South,180,0.0,2.0,82,0.00,,,0.00,Rainwise IP-100,2014-01-07 14:37:00,
2014-01-07 08:43:00,21.8,18.0,30.54,South,180,1.9,3.0,81,0.00,,,0.00,Rainwise IP-100,2014-01-07 14:43:00,
2014-01-07 08:48:00,23.1,16.0,30.54,ESE,112,2.1,2.1,77,0.00,,,0.00,Rainwise IP-100,2014-01-07 14:48:00,
2014-01-07 08:53:00,24.3,18.0,30.54,SE,135,1.9,3.0,74,0.00,,,0.00,Rainwise IP-100,2014-01-07 14:53:00,
2014-01-07 08:58:00,25.2,18.0,30.54,SE,135,1.6,3.0,71,0.00,,,0.00,Rainwise IP-100,2014-01-07 14:58:00,
2014-01-07 09:03:00,26.1,18.0,30.55,South,180,3.5,8.0,68,0.00,,,0.00,Rainwise IP-100,2014-01-07 15:03:00,
2014-01-07 09:08:00,27.1,18.0,30.55,SE,135,3.0,7.0,64,0.00,,,0.00,Rainwise IP-100,2014-01-07 15:08:00,
2014-01-07 09:13:00,27.6,16.0,30.55,South,180,4.7,9.0,60,0.00,,,0.00,Rainwise IP-100,2014-01-07 15:13:00,
2014-01-07 09:19:00,27.8,16.0,30.55,SSE,157,3.0,10.0,58,0.00,,,0.00,Rainwise IP-100,2014-01-07 15:19:00,
2014-01-07 09:24:00,28.0,14.0,30.54,South,180,3.7,8.0,56,0.00,,,0.00,Rainwise IP-100,2014-01-07 15:24:00,
2014-01-07 09:29:00,28.4,14.0,30.55,South,180,5.8,8.0,55,0.00,,,0.00,Rainwise IP-100,2014-01-07 15:29:00,
2014-01-07 09:34:00,28.9,16.0,30.55,SW,225,2.3,8.0,54,0.00,,,0.00,Rainwise IP-100,2014-01-07 15:34:00,
2014-01-07 09:39:00,29.4,14.0,30.55,SSW,202,4.0,8.0,53,0.00,,,0.00,Rainwise IP-100,2014-01-07 15:39:00,
2014-01-07 09:44:00,29.8,16.0,30.55,South,180,3.7,8.0,51,0.00,,,0.00,Rainwise IP-100,2014-01-07 15:44:00,
2014-01-07 09:49:00,30.0,16.0,30.55,SSW,202,3.7,8.0,50,0.00,,,0.00,Rainwise IP-100,2014-01-07 15:49:00,
2014-01-07 09:54:00,30.3,14.0,30.55,SSW,202,2.3,8.0,49,0.00,,,0.00,Rainwise IP-100,2014-01-07 15:54:00,
2014-01-07 10:00:00,30.8,14.0,30.55,SSW,202,2.1,7.0,49,0.00,,,0.00,Rainwise IP-100,2014-01-07 16:00:00,
2014-01-07 10:05:00,31.1,14.0,30.55,SSW,202,1.2,8.0,48,0.00,,,0.00,Rainwise IP-100,2014-01-07 16:05:00,
2014-01-07 10:10:00,31.5,14.0,30.55,South,180,8.2,8.2,47,0.00,,,0.00,Rainwise IP-100,2014-01-07 16:10:00,
2014-01-07 10:15:00,31.9,14.0,30.55,SSW,202,4.9,10.0,46,0.00,,,0.00,Rainwise IP-100,2014-01-07 16:15:00,
2014-01-07 10:20:00,32.3,14.0,30.55,SSE,157,3.7,9.0,45,0.00,,,0.00,Rainwise IP-100,2014-01-07 16:20:00,
2014-01-07 10:25:00,32.9,14.0,30.55,SSW,202,4.2,9.0,44,0.00,,,0.00,Rainwise IP-100,2014-01-07 16:25:00,
2014-01-07 10:30:00,33.3,14.0,30.55,SSE,157,5.8,14.0,42,0.00,,,0.00,Rainwise IP-100,2014-01-07 16:30:00,
2014-01-07 10:36:00,33.4,14.0,30.55,South,180,7.2,10.0,41,0.00,,,0.00,Rainwise IP-100,2014-01-07 16:36:00,
2014-01-07 10:41:00,33.4,14.0,30.55,SSW,202,7.2,11.0,40,0.00,,,0.00,Rainwise IP-100,2014-01-07 16:41:00,
2014-01-07 10:46:00,33.5,14.0,30.54,ESE,112,2.1,13.0,39,0.00,,,0.00,Rainwise IP-100,2014-01-07 16:46:00,
2014-01-07 10:51:00,34.1,14.0,30.54,South,180,4.4,12.0,38,0.00,,,0.00,Rainwise IP-100,2014-01-07 16:51:00,
2014-01-07 10:56:00,34.7,14.0,30.54,ESE,112,4.2,9.0,38,0.00,,,0.00,Rainwise IP-100,2014-01-07 16:56:00,
2014-01-07 11:01:00,34.9,11.0,30.54,SSW,202,8.4,9.0,37,0.00,,,0.00,Rainwise IP-100,2014-01-07 17:01:00,
2014-01-07 11:06:00,35.0,11.0,30.54,SSE,157,2.8,10.0,37,0.00,,,0.00,Rainwise IP-100,2014-01-07 17:06:00,
2014-01-07 11:11:00,35.2,11.0,30.53,SW,225,5.8,10.0,37,0.00,,,0.00,Rainwise IP-100,2014-01-07 17:11:00,
2014-01-07 11:16:00,35.6,14.0,30.53,SE,135,3.0,10.0,37,0.00,,,0.00,Rainwise IP-100,2014-01-07 17:16:00,
2014-01-07 11:22:00,36.0,14.0,30.52,South,180,3.5,10.0,37,0.00,,,0.00,Rainwise IP-100,2014-01-07 17:22:00,
2014-01-07 11:27:00,36.4,14.0,30.52,SSE,157,4.2,9.0,36,0.00,,,0.00,Rainwise IP-100,2014-01-07 17:27:00,
2014-01-07 11:32:00,36.8,14.0,30.51,South,180,4.2,11.0,36,0.00,,,0.00,Rainwise IP-100,2014-01-07 17:32:00,
2014-01-07 11:37:00,37.3,14.0,30.50,South,180,7.7,10.0,35,0.00,,,0.00,Rainwise IP-100,2014-01-07 17:37:00,
2014-01-07 11:42:00,37.7,14.0,30.50,South,180,5.6,11.0,34,0.00,,,0.00,Rainwise IP-100,2014-01-07 17:42:00,
2014-01-07 11:47:00,37.9,14.0,30.50,South,180,10.7,10.7,33,0.00,,,0.00,Rainwise IP-100,2014-01-07 17:47:00,
2014-01-07 11:52:00,38.1,11.0,30.50,South,180,6.3,12.0,32,0.00,,,0.00,Rainwise IP-100,2014-01-07 17:52:00,
2014-01-07 11:58:00,38.4,11.0,30.49,SSE,157,9.6,10.0,32,0.00,,,0.00,Rainwise IP-100,2014-01-07 17:58:00,
2014-01-07 12:03:00,38.5,11.0,30.49,SSE,157,4.2,11.0,31,0.00,,,0.00,Rainwise IP-100,2014-01-07 18:03:00,
2014-01-07 12:08:00,39.2,11.0,30.48,South,180,5.8,8.0,31,0.00,,,0.00,Rainwise IP-100,2014-01-07 18:08:00,
2014-01-07 12:13:00,39.6,14.0,30.47,SSE,157,4.9,10.0,30,0.00,,,0.00,Rainwise IP-100,2014-01-07 18:13:00,
2014-01-07 12:18:00,39.7,14.0,30.47,South,180,5.8,12.0,30,0.00,,,0.00,Rainwise IP-100,2014-01-07 18:18:00,
2014-01-07 12:23:00,39.9,14.0,30.47,SSE,157,2.6,8.0,30,0.00,,,0.00,Rainwise IP-100,2014-01-07 18:23:00,
2014-01-07 12:28:00,40.1,14.0,30.46,ESE,112,2.8,7.0,30,0.00,,,0.00,Rainwise IP-100,2014-01-07 18:28:00,
2014-01-07 12:33:00,40.8,14.0,30.46,SSW,202,8.9,11.0,30,0.00,,,0.00,Rainwise IP-100,2014-01-07 18:33:00,
2014-01-07 12:39:00,41.4,14.0,30.45,ESE,112,4.7,11.0,29,0.00,,,0.00,Rainwise IP-100,2014-01-07 18:39:00,
2014-01-07 12:44:00,41.7,14.0,30.45,SSE,157,7.5,12.0,29,0.00,,,0.00,Rainwise IP-100,2014-01-07 18:44:00,
2014-01-07 12:49:00,41.6,14.0,30.44,SSE,157,7.5,12.0,28,0.00,,,0.00,Rainwise IP-100,2014-01-07 18:49:00,
2014-01-07 12:54:00,41.7,14.0,30.44,South,180,8.9,9.0,28,0.00,,,0.00,Rainwise IP-100,2014-01-07 18:54:00,
2014-01-07 12:59:00,41.9,11.0,30.44,SE,135,6.1,13.0,27,0.00,,,0.00,Rainwise IP-100,2014-01-07 18:59:00,
2014-01-07 13:04:00,42.1,11.0,30.43,SSE,157,4.2,13.0,27,0.00,,,0.00,Rainwise IP-100,2014-01-07 19:04:00,
2014-01-07 13:09:00,42.2,11.0,30.43,SSE,157,4.9,13.0,27,0.00,,,0.00,Rainwise IP-100,2014-01-07 19:09:00,
2014-01-07 13:15:00,42.5,14.0,30.42,South,180,2.6,12.0,27,0.00,,,0.00,Rainwise IP-100,2014-01-07 19:15:00,
2014-01-07 13:20:00,42.9,14.0,30.42,SSE,157,3.7,8.0,27,0.00,,,0.00,Rainwise IP-100,2014-01-07 19:20:00,
2014-01-07 13:25:00,43.0,14.0,30.42,South,180,7.0,11.0,27,0.00,,,0.00,Rainwise IP-100,2014-01-07 19:25:00,
2014-01-07 13:30:00,43.5,14.0,30.42,SSW,202,3.0,10.0,27,0.00,,,0.00,Rainwise IP-100,2014-01-07 19:30:00,
2014-01-07 13:35:00,44.0,14.0,30.42,South,180,6.5,11.0,27,0.00,,,0.00,Rainwise IP-100,2014-01-07 19:35:00,
2014-01-07 13:40:00,43.9,14.0,30.41,South,180,6.5,12.0,26,0.00,,,0.00,Rainwise IP-100,2014-01-07 19:40:00,
2014-01-07 13:45:00,43.9,14.0,30.42,SSE,157,8.6,11.0,26,0.00,,,0.00,Rainwise IP-100,2014-01-07 19:45:00,
2014-01-07 13:50:00,44.2,11.0,30.41,SSE,157,9.1,13.0,25,0.00,,,0.00,Rainwise IP-100,2014-01-07 19:50:00,
2014-01-07 13:56:00,44.2,11.0,30.41,SE,135,3.7,14.0,25,0.00,,,0.00,Rainwise IP-100,2014-01-07 19:56:00,
2014-01-07 14:01:00,44.5,14.0,30.41,SSE,157,4.4,14.0,25,0.00,,,0.00,Rainwise IP-100,2014-01-07 20:01:00,
2014-01-07 14:06:00,45.0,14.0,30.40,SSW,202,3.5,12.0,25,0.00,,,0.00,Rainwise IP-100,2014-01-07 20:06:00,
2014-01-07 14:11:00,45.3,14.0,30.40,South,180,7.2,13.0,25,0.00,,,0.00,Rainwise IP-100,2014-01-07 20:11:00,
2014-01-07 14:16:00,44.9,11.0,30.40,South,180,4.0,13.0,24,0.00,,,0.00,Rainwise IP-100,2014-01-07 20:16:00,
2014-01-07 14:21:00,45.0,11.0,30.40,South,180,5.8,13.0,24,0.00,,,0.00,Rainwise IP-100,2014-01-07 20:21:00,
2014-01-07 14:26:00,45.5,11.0,30.39,SE,135,5.6,13.0,24,0.00,,,0.00,Rainwise IP-100,2014-01-07 20:26:00,
2014-01-07 14:32:00,45.5,11.0,30.40,SSE,157,1.9,15.0,24,0.00,,,0.00,Rainwise IP-100,2014-01-07 20:32:00,
2014-01-07 14:37:00,45.3,11.0,30.39,SSW,202,6.8,14.0,24,0.00,,,0.00,Rainwise IP-100,2014-01-07 20:37:00,
2014-01-07 14:42:00,44.9,11.0,30.39,South,180,14.5,14.5,24,0.00,,,0.00,Rainwise IP-100,2014-01-07 20:42:00,
2014-01-07 14:47:00,44.7,11.0,30.39,SSW,202,3.0,14.0,24,0.00,,,0.00,Rainwise IP-100,2014-01-07 20:47:00,
2014-01-07 14:52:00,44.7,11.0,30.39,SSW,202,5.6,12.0,24,0.00,,,0.00,Rainwise IP-100,2014-01-07 20:52:00,
2014-01-07 14:57:00,44.2,11.0,30.38,South,180,7.0,11.0,24,0.00,,,0.00,Rainwise IP-100,2014-01-07 20:57:00,
2014-01-07 15:02:00,43.8,11.0,30.39,ESE,112,4.0,12.0,25,0.00,,,0.00,Rainwise IP-100,2014-01-07 21:02:00,
2014-01-07 15:07:00,43.8,11.0,30.38,South,180,5.6,13.0,25,0.00,,,0.00,Rainwise IP-100,2014-01-07 21:07:00,
2014-01-07 15:13:00,43.7,11.0,30.38,South,180,8.9,11.0,25,0.00,,,0.00,Rainwise IP-100,2014-01-07 21:13:00,
2014-01-07 15:18:00,43.6,11.0,30.38,South,180,6.8,15.0,25,0.00,,,0.00,Rainwise IP-100,2014-01-07 21:18:00,
2014-01-07 15:23:00,43.6,11.0,30.38,SSE,157,6.3,17.0,25,0.00,,,0.00,Rainwise IP-100,2014-01-07 21:23:00,
2014-01-07 15:28:00,43.5,14.0,30.38,SSE,157,7.2,17.0,26,0.00,,,0.00,Rainwise IP-100,2014-01-07 21:28:00,
2014-01-07 15:33:00,43.4,11.0,30.38,South,180,7.5,14.0,26,0.00,,,0.00,Rainwise IP-100,2014-01-07 21:33:00,
2014-01-07 15:38:00,43.5,14.0,30.38,South,180,3.5,13.0,26,0.00,,,0.00,Rainwise IP-100,2014-01-07 21:38:00,
2014-01-07 15:43:00,43.4,11.0,30.38,SSW,202,2.3,12.0,26,0.00,,,0.00,Rainwise IP-100,2014-01-07 21:43:00,
2014-01-07 15:49:00,43.4,11.0,30.38,South,180,3.7,14.0,26,0.00,,,0.00,Rainwise IP-100,2014-01-07 21:49:00,
2014-01-07 15:54:00,43.2,14.0,30.38,South,180,4.0,10.0,27,0.00,,,0.00,Rainwise IP-100,2014-01-07 21:54:00,
2014-01-07 15:59:00,43.1,14.0,30.38,South,180,6.8,14.0,27,0.00,,,0.00,Rainwise IP-100,2014-01-07 21:59:00,
2014-01-07 16:04:00,42.8,14.0,30.38,SE,135,4.0,11.0,27,0.00,,,0.00,Rainwise IP-100,2014-01-07 22:04:00,
2014-01-07 16:09:00,42.7,14.0,30.37,SE,135,1.9,10.0,27,0.00,,,0.00,Rainwise IP-100,2014-01-07 22:09:00,
2014-01-07 16:14:00,42.8,14.0,30.38,South,180,5.8,9.0,28,0.00,,,0.00,Rainwise IP-100,2014-01-07 22:14:00,
2014-01-07 16:19:00,42.7,14.0,30.37,South,180,7.7,14.0,27,0.00,,,0.00,Rainwise IP-100,2014-01-07 22:19:00,
2014-01-07 16:24:00,42.6,14.0,30.37,South,180,8.2,11.0,27,0.00,,,0.00,Rainwise IP-100,2014-01-07 22:24:00,
2014-01-07 16:30:00,42.4,11.0,30.38,SSE,157,4.2,11.0,27,0.00,,,0.00,Rainwise IP-100,2014-01-07 22:30:00,
2014-01-07 16:35:00,42.3,11.0,30.38,South,180,6.5,11.0,27,0.00,,,0.00,Rainwise IP-100,2014-01-07 22:35:00,
2014-01-07 16:40:00,42.2,11.0,30.37,South,180,2.1,9.0,27,0.00,,,0.00,Rainwise IP-100,2014-01-07 22:40:00,
2014-01-07 16:45:00,42.1,11.0,30.37,SSW,202,6.3,11.0,27,0.00,,,0.00,Rainwise IP-100,2014-01-07 22:45:00,
2014-01-07 16:50:00,42.0,11.0,30.38,SSE,157,7.9,12.0,27,0.00,,,0.00,Rainwise IP-100,2014-01-07 22:50:00,
2014-01-07 16:55:00,41.9,14.0,30.37,South,180,7.9,11.0,28,0.00,,,0.00,Rainwise IP-100,2014-01-07 22:55:00,
2014-01-07 17:00:00,41.9,14.0,30.37,South,180,10.5,11.0,28,0.00,,,0.00,Rainwise IP-100,2014-01-07 23:00:00,
2014-01-07 17:06:00,41.8,14.0,30.37,South,180,7.5,13.0,28,0.00,,,0.00,Rainwise IP-100,2014-01-07 23:06:00,
2014-01-07 17:11:00,41.7,14.0,30.37,SSE,157,5.4,10.0,28,0.00,,,0.00,Rainwise IP-100,2014-01-07 23:11:00,
2014-01-07 17:16:00,41.6,14.0,30.37,South,180,8.2,8.2,28,0.00,,,0.00,Rainwise IP-100,2014-01-07 23:16:00,
2014-01-07 17:21:00,41.4,11.0,30.36,SSW,202,4.7,10.0,28,0.00,,,0.00,Rainwise IP-100,2014-01-07 23:21:00,
2014-01-07 17:26:00,41.3,11.0,30.36,South,180,6.8,11.0,28,0.00,,,0.00,Rainwise IP-100,2014-01-07 23:26:00,
2014-01-07 17:31:00,41.2,11.0,30.36,SE,135,8.6,11.0,28,0.00,,,0.00,Rainwise IP-100,2014-01-07 23:31:00,
2014-01-07 17:36:00,41.1,11.0,30.36,South,180,9.1,9.1,28,0.00,,,0.00,Rainwise IP-100,2014-01-07 23:36:00,
2014-01-07 17:41:00,41.0,14.0,30.36,SE,135,4.7,11.0,29,0.00,,,0.00,Rainwise IP-100,2014-01-07 23:41:00,
2014-01-07 17:47:00,40.9,11.0,30.36,SSE,157,4.7,11.0,28,0.00,,,0.00,Rainwise IP-100,2014-01-07 23:47:00,
2014-01-07 17:52:00,40.7,11.0,30.36,SW,225,4.9,10.0,28,0.00,,,0.00,Rainwise IP-100,2014-01-07 23:52:00,
2014-01-07 17:57:00,40.6,14.0,30.36,South,180,7.2,10.0,29,0.00,,,0.00,Rainwise IP-100,2014-01-07 23:57:00,
2014-01-07 18:02:00,40.4,11.0,30.36,SW,225,3.3,9.0,29,0.00,,,0.00,Rainwise IP-100,2014-01-08 00:02:00,
2014-01-07 18:07:00,40.3,11.0,30.35,SSE,157,6.3,11.0,29,0.00,,,0.00,Rainwise IP-100,2014-01-08 00:07:00,
2014-01-07 18:12:00,40.2,11.0,30.35,SSE,157,7.0,11.0,29,0.00,,,0.00,Rainwise IP-100,2014-01-08 00:12:00,
2014-01-07 18:17:00,40.1,11.0,30.35,SSE,157,4.9,12.0,29,0.00,,,0.00,Rainwise IP-100,2014-01-08 00:17:00,
2014-01-07 18:23:00,40.0,14.0,30.35,South,180,5.8,12.0,30,0.00,,,0.00,Rainwise IP-100,2014-01-08 00:23:00,
2014-01-07 18:28:00,39.9,14.0,30.35,SSE,157,4.0,8.0,30,0.00,,,0.00,Rainwise IP-100,2014-01-08 00:28:00,
2014-01-07 18:33:00,39.9,14.0,30.35,South,180,4.2,13.0,30,0.00,,,0.00,Rainwise IP-100,2014-01-08 00:33:00,
2014-01-07 18:38:00,39.9,14.0,30.34,SSE,157,12.6,14.0,30,0.00,,,0.00,Rainwise IP-100,2014-01-08 00:38:00,
2014-01-07 18:43:00,39.8,14.0,30.35,SSE,157,5.1,12.0,30,0.00,,,0.00,Rainwise IP-100,2014-01-08 00:43:00,
2014-01-07 18:48:00,39.7,14.0,30.35,South,180,5.4,12.0,30,0.00,,,0.00,Rainwise IP-100,2014-01-08 00:48:00,
2014-01-07 18:53:00,39.6,14.0,30.36,SSE,157,9.8,12.0,30,0.00,,,0.00,Rainwise IP-100,2014-01-08 00:53:00,
2014-01-07 18:58:00,39.7,14.0,30.35,South,180,4.9,14.0,30,0.00,,,0.00,Rainwise IP-100,2014-01-08 00:58:00,
2014-01-07 19:04:00,39.7,14.0,30.35,South,180,3.0,14.0,30,0.00,,,0.00,Rainwise IP-100,2014-01-08 01:04:00,
2014-01-07 19:09:00,39.6,14.0,30.35,South,180,6.5,12.0,30,0.00,,,0.00,Rainwise IP-100,2014-01-08 01:09:00,
2014-01-07 19:14:00,39.5,14.0,30.36,SSW,202,7.2,12.0,30,0.00,,,0.00,Rainwise IP-100,2014-01-08 01:14:00,
2014-01-07 19:19:00,39.5,14.0,30.36,SW,225,6.3,11.0,30,0.00,,,0.00,Rainwise IP-100,2014-01-08 01:19:00,
2014-01-07 19:24:00,39.4,11.0,30.35,South,180,5.6,9.0,30,0.00,,,0.00,Rainwise IP-100,2014-01-08 01:24:00,
2014-01-07 19:29:00,39.3,11.0,30.35,South,180,6.5,7.0,30,0.00,,,0.00,Rainwise IP-100,2014-01-08 01:29:00,
2014-01-07 19:34:00,39.3,11.0,30.35,South,180,7.0,11.0,30,0.00,,,0.00,Rainwise IP-100,2014-01-08 01:34:00,
2014-01-07 19:40:00,39.2,11.0,30.34,SSW,202,5.6,10.0,30,0.00,,,0.00,Rainwise IP-100,2014-01-08 01:40:00,
2014-01-07 19:45:00,39.2,11.0,30.34,SSE,157,6.8,10.0,31,0.00,,,0.00,Rainwise IP-100,2014-01-08 01:45:00,
2014-01-07 19:50:00,39.2,11.0,30.34,South,180,3.3,12.0,31,0.00,,,0.00,Rainwise IP-100,2014-01-08 01:50:00,
2014-01-07 19:55:00,39.1,11.0,30.34,South,180,5.6,11.0,31,0.00,,,0.00,Rainwise IP-100,2014-01-08 01:55:00,
2014-01-07 20:00:00,39.1,11.0,30.35,SSW,202,5.1,10.0,31,0.00,,,0.00,Rainwise IP-100,2014-01-08 02:00:00,
2014-01-07 20:05:00,39.2,11.0,30.35,SSW,202,6.8,12.0,31,0.00,,,0.00,Rainwise IP-100,2014-01-08 02:05:00,
2014-01-07 20:10:00,39.1,11.0,30.35,SE,135,3.5,12.0,31,0.00,,,0.00,Rainwise IP-100,2014-01-08 02:10:00,
2014-01-07 20:15:00,39.1,11.0,30.34,South,180,9.1,9.1,31,0.00,,,0.00,Rainwise IP-100,2014-01-08 02:15:00,
2014-01-07 20:21:00,39.1,11.0,30.34,South,180,2.1,14.0,31,0.00,,,0.00,Rainwise IP-100,2014-01-08 02:21:00,
2014-01-07 20:26:00,39.1,11.0,30.34,South,180,4.7,12.0,31,0.00,,,0.00,Rainwise IP-100,2014-01-08 02:26:00,
2014-01-07 20:31:00,39.1,11.0,30.34,South,180,7.7,12.0,31,0.00,,,0.00,Rainwise IP-100,2014-01-08 02:31:00,
2014-01-07 20:36:00,39.0,11.0,30.35,SSE,157,7.2,13.0,31,0.00,,,0.00,Rainwise IP-100,2014-01-08 02:36:00,
2014-01-07 20:41:00,38.9,11.0,30.35,South,180,7.2,17.0,31,0.00,,,0.00,Rainwise IP-100,2014-01-08 02:41:00,
2014-01-07 20:46:00,38.9,11.0,30.35,SSW,202,5.6,11.0,31,0.00,,,0.00,Rainwise IP-100,2014-01-08 02:46:00,
2014-01-07 20:51:00,39.0,11.0,30.35,South,180,7.0,15.0,31,0.00,,,0.00,Rainwise IP-100,2014-01-08 02:51:00,
2014-01-07 20:57:00,38.9,11.0,30.35,South,180,5.6,11.0,31,0.00,,,0.00,Rainwise IP-100,2014-01-08 02:57:00,
2014-01-07 21:02:00,38.9,11.0,30.36,SSW,202,9.1,14.0,31,0.00,,,0.00,Rainwise IP-100,2014-01-08 03:02:00,
2014-01-07 21:07:00,38.9,14.0,30.35,South,180,7.9,12.0,32,0.00,,,0.00,Rainwise IP-100,2014-01-08 03:07:00,
2014-01-07 21:12:00,38.8,14.0,30.35,SSE,157,3.7,11.0,32,0.00,,,0.00,Rainwise IP-100,2014-01-08 03:12:00,
2014-01-07 21:17:00,38.7,14.0,30.35,South,180,10.0,13.0,32,0.00,,,0.00,Rainwise IP-100,2014-01-08 03:17:00,
2014-01-07 21:22:00,38.7,14.0,30.35,South,180,0.0,11.0,33,0.00,,,0.00,Rainwise IP-100,2014-01-08 03:22:00,
2014-01-07 21:27:00,38.7,14.0,30.35,South,180,5.8,7.0,33,0.00,,,0.00,Rainwise IP-100,2014-01-08 03:27:00,
2014-01-07 21:32:00,38.7,14.0,30.34,South,180,6.1,8.0,34,0.00,,,0.00,Rainwise IP-100,2014-01-08 03:32:00,
2014-01-07 21:38:00,38.7,14.0,30.34,SE,135,4.9,12.0,34,0.00,,,0.00,Rainwise IP-100,2014-01-08 03:38:00,
2014-01-07 21:43:00,38.7,14.0,30.34,SE,135,3.7,9.0,34,0.00,,,0.00,Rainwise IP-100,2014-01-08 03:43:00,
2014-01-07 21:48:00,38.6,14.0,30.35,SSW,202,2.6,8.0,35,0.00,,,0.00,Rainwise IP-100,2014-01-08 03:48:00,
2014-01-07 21:53:00,38.6,14.0,30.34,South,180,1.9,7.0,35,0.00,,,0.00,Rainwise IP-100,2014-01-08 03:53:00,
2014-01-07 21:58:00,38.6,16.0,30.34,South,180,4.7,11.0,36,0.00,,,0.00,Rainwise IP-100,2014-01-08 03:58:00,
2014-01-07 22:03:00,38.6,16.0,30.34,SSE,157,7.0,10.0,36,0.00,,,0.00,Rainwise IP-100,2014-01-08 04:03:00,
2014-01-07 22:08:00,38.7,16.0,30.34,South,180,7.0,12.0,37,0.00,,,0.00,Rainwise IP-100,2014-01-08 04:08:00,
2014-01-07 22:14:00,38.7,16.0,30.34,South,180,2.6,9.0,37,0.00,,,0.00,Rainwise IP-100,2014-01-08 04:14:00,
2014-01-07 22:19:00,38.7,16.0,30.34,South,180,8.4,11.0,38,0.00,,,0.00,Rainwise IP-100,2014-01-08 04:19:00,
2014-01-07 22:24:00,38.7,16.0,30.33,South,180,9.6,11.0,39,0.00,,,0.00,Rainwise IP-100,2014-01-08 04:24:00,
2014-01-07 22:29:00,38.7,16.0,30.33,South,180,5.8,10.0,39,0.00,,,0.00,Rainwise IP-100,2014-01-08 04:29:00,
2014-01-07 22:34:00,38.8,18.0,30.33,SSE,157,3.3,10.0,40,0.00,,,0.00,Rainwise IP-100,2014-01-08 04:34:00,
2014-01-07 22:39:00,38.8,18.0,30.33,South,180,4.2,11.0,41,0.00,,,0.00,Rainwise IP-100,2014-01-08 04:39:00,
2014-01-07 22:44:00,38.7,18.0,30.32,South,180,7.2,12.0,42,0.00,,,0.00,Rainwise IP-100,2014-01-08 04:44:00,
2014-01-07 22:49:00,38.7,18.0,30.32,SSE,157,4.7,11.0,43,0.00,,,0.00,Rainwise IP-100,2014-01-08 04:49:00,
2014-01-07 22:55:00,38.8,21.0,30.32,SSW,202,7.9,10.0,44,0.00,,,0.00,Rainwise IP-100,2014-01-08 04:55:00,
2014-01-07 23:00:00,38.9,21.0,30.33,South,180,5.8,12.0,45,0.00,,,0.00,Rainwise IP-100,2014-01-08 05:00:00,
2014-01-07 23:01:00,38.8,21.0,30.33,South,180,4.9,12.0,45,0.00,,,0.00,Rainwise IP-100,2014-01-08 05:01:00,
2014-01-07 23:03:00,38.9,21.0,30.33,ESE,112,5.4,9.0,45,0.00,,,0.00,Rainwise IP-100,2014-01-08 05:03:00,
2014-01-07 23:09:00,38.9,21.0,30.33,South,180,5.4,10.0,46,0.00,,,0.00,Rainwise IP-100,2014-01-08 05:09:00,
2014-01-07 23:14:00,38.9,21.0,30.33,SSW,202,4.9,9.0,46,0.00,,,0.00,Rainwise IP-100,2014-01-08 05:14:00,
2014-01-07 23:19:00,38.9,21.0,30.33,South,180,5.8,10.0,47,0.00,,,0.00,Rainwise IP-100,2014-01-08 05:19:00,
2014-01-07 23:24:00,38.9,23.0,30.32,SSE,157,4.0,9.0,48,0.00,,,0.00,Rainwise IP-100,2014-01-08 05:24:00,
2014-01-07 23:29:00,38.9,23.0,30.33,SE,135,3.5,9.0,49,0.00,,,0.00,Rainwise IP-100,2014-01-08 05:29:00,
2014-01-07 23:34:00,38.9,23.0,30.32,SSE,157,5.6,8.0,49,0.00,,,0.00,Rainwise IP-100,2014-01-08 05:34:00,
2014-01-07 23:39:00,38.9,23.0,30.32,South,180,6.8,8.0,50,0.00,,,0.00,Rainwise IP-100,2014-01-08 05:39:00,
2014-01-07 23:44:00,39.0,23.0,30.32,South,180,6.5,10.0,51,0.00,,,0.00,Rainwise IP-100,2014-01-08 05:44:00,
2014-01-07 23:50:00,39.1,23.0,30.31,South,180,5.4,9.0,52,0.00,,,0.00,Rainwise IP-100,2014-01-08 05:50:00,
2014-01-07 23:55:00,39.1,24.0,30.31,SE,135,6.1,9.0,53,0.00,,,0.00,Rainwise IP-100,2014-01-08 05:55:00,